DW3735 Weather Reports


Display with metric or nautical units.
time (UTC)temp
F
wind
direction
speed
MPH
gust
MPH
rain 1hr
in
rain 24hr
in
rain mn
in
humidity
%
barometer
mb
20260505004017 59 0.0 0.0 0.00 0.27 0.27 61 998.3
20260505003017 60 0.0 0.0 0.00 0.27 0.27 61 998.3
20260505002017 60 0.0 0.0 0.00 0.27 0.27 61 998.4
20260505001017 60 0.0 1.0 0.00 0.27 0.27 61 998.5
20260505000017 60 158 1.0 2.0 0.00 0.27 0.27 61 998.4
20260504235037 61 0.0 2.0 0.00 0.27 0.27 60 998.3
20260504234017 62 158 4.0 5.0 0.00 0.27 0.27 57 998.4
20260504233037 61 113 2.0 4.0 0.00 0.27 0.27 59 998.3
20260504232017 62 0.0 0.0 0.00 0.27 0.27 58 998.4
20260504231017 62 0.0 0.0 0.00 0.27 0.27 58 998.5
20260504230018 62 0.0 2.0 0.00 0.27 0.27 57 998.6
20260504225037 62 90 1.0 4.0 0.00 0.27 0.27 57 998.7
20260504224017 62 90 2.0 4.0 0.00 0.27 0.27 58 998.8
20260504223017 62 90 2.0 4.0 0.00 0.27 0.27 57 999.1
20260504222018 62 90 3.0 5.0 0.00 0.27 0.27 58 999.1
20260504221017 63 135 1.0 2.0 0.00 0.27 0.27 57 999.2
20260504220038 63 135 2.0 5.0 0.00 0.27 0.27 56 999.1
20260504215018 63 135 1.0 3.0 0.00 0.27 0.27 60 999.1
20260504214158 62 135 2.0 4.0 0.00 0.27 0.27 61 999.2
20260504213018 62 0.0 3.0 0.00 0.27 0.27 62 999.4
20260504212018 62 135 1.0 5.0 0.00 0.27 0.27 63 999.6
20260504211017 61 158 1.0 5.0 0.00 0.27 0.27 63 999.7
20260504210017 61 158 1.0 3.0 0.00 0.27 0.27 65 999.6
20260504205017 61 158 3.0 6.0 0.00 0.27 0.27 64 999.7
20260504204017 60 135 1.0 4.0 0.00 0.27 0.27 67 999.8
20260504203015 60 135 2.0 4.0 0.00 0.27 0.27 67 1000.0
20260504202017 60 135 3.0 9.0 0.00 0.27 0.27 68 1000.2
20260504201017 59 135 3.0 5.0 0.00 0.27 0.27 70 1000.4
20260504200018 58 135 3.0 6.0 0.00 0.27 0.27 71 1000.6
20260504195017 58 135 4.0 8.0 0.00 0.27 0.27 70 1000.8
20260504194038 57 135 3.0 5.0 0.00 0.27 0.27 72 1000.8
20260504193037 57 135 4.0 8.0 0.00 0.27 0.27 71 1001.0
20260504192036 57 135 2.0 4.0 0.00 0.27 0.27 71 1001.2
20260504191017 58 158 3.0 5.0 0.00 0.27 0.27 70 1001.3
20260504190018 58 180 3.0 6.0 0.00 0.27 0.27 69 1001.4
20260504185017 58 180 1.0 4.0 0.00 0.27 0.27 71 1001.4
20260504184018 58 203 2.0 4.0 0.00 0.27 0.27 69 1001.5
20260504183017 58 203 3.0 5.0 0.00 0.27 0.27 68 1001.5
20260504182017 58 203 4.0 7.0 0.00 0.27 0.27 69 1001.5
20260504181017 57 180 3.0 4.0 0.00 0.27 0.27 70 1001.6
20260504180017 58 248 2.0 6.0 0.00 0.27 0.27 70 1001.6
20260504175018 58 203 3.0 6.0 0.00 0.27 0.27 67 1001.7
20260504174018 58 225 2.0 4.0 0.00 0.27 0.27 68 1001.7
20260504173017 58 248 2.0 7.0 0.00 0.27 0.27 71 1001.9
20260504172018 57 225 1.0 8.0 0.00 0.27 0.27 73 1002.0
20260504171018 56 180 2.0 4.0 0.00 0.27 0.27 75 1002.1
20260504151035 51 0.0 0.0 0.00 0.27 0.27 87 1002.8
20260504141035 49 0.0 1.0 0.00 0.27 0.27 91 1002.6
20260504081016 45 0.0 1.0 0.02 0.02 0.02 76 1002.5
20260504050015 49 203 2.0 4.0 0.00 0.00 0.00 54 1003.7
20260504045015 49 225 1.0 2.0 0.00 0.00 0.00 53 1003.8
20260504044036 50 225 1.0 2.0 0.00 0.00 0.00 51 1004.0
20260504043016 50 225 2.0 4.0 0.00 0.00 0.00 52 1004.0
20260504042016 50 248 2.0 4.0 0.00 0.00 0.00 50 1003.9
20260504041016 50 248 1.0 2.0 0.00 0.00 0.00 49 1003.9
20260504040015 50 0.0 2.0 0.00 0.00 0.00 50 1004.0
20260504035016 50 0.0 2.0 0.00 0.00 0.00 48 1004.0
20260504034016 51 248 1.0 2.0 0.00 0.00 0.00 47 1003.9
20260504033016 51 248 2.0 4.0 0.00 0.00 0.00 47 1004.1
20260504032016 51 225 2.0 4.0 0.00 0.00 0.00 47 1004.1
20260504031016 51 225 2.0 3.0 0.00 0.00 0.00 45 1004.2
20260504030016 51 225 2.0 6.0 0.00 0.00 0.00 45 1004.2
20260504025016 51 248 1.0 3.0 0.00 0.00 0.00 44 1004.3
20260504024016 51 248 1.0 2.0 0.00 0.00 0.00 42 1004.3
20260504023036 51 270 1.0 3.0 0.00 0.00 0.00 43 1004.3
20260504022016 50 0.0 2.0 0.00 0.00 0.00 43 1004.3
20260504021036 49 0.0 0.0 0.00 0.00 0.00 43 1004.3
20260504020016 49 0.0 0.0 0.00 0.00 0.00 42 1004.3
20260504015036 48 0.0 0.0 0.00 0.00 0.00 45 1004.3
20260504014016 47 0.0 0.0 0.00 0.00 0.00 45 1004.3
20260504013016 46 0.0 0.0 0.00 0.00 0.00 46 1004.2
20260504012016 47 0.0 0.0 0.00 0.00 0.00 47 1004.2
20260504011016 47 0.0 0.0 0.00 0.00 0.00 46 1004.1
20260504010016 48 0.0 0.0 0.00 0.00 0.00 49 1004.2
20260504005016 48 0.0 0.0 0.00 0.00 0.00 42 1004.1